Location: La Pernelle
(49.6188°N, 1.2999°W)
Time: 12:06:50
(UTC+00:00)

Cosmos 1954 Rocket - Pass Details

Date: 23 October 2021
Orbit: 751 x 782 km, 74.0° (Epoch: 26 November)

Event Time Altitude Azimuth Distance (km) Brightness Sun altitude
Rises 18:59:11 0° 341° (NNW) 3,235 7.6 -20.1°
Reaches altitude 10° 19:01:49 10° 352° (N) 2,310 6.6 -20.6°
Enters shadow 19:06:02 31° 44° (NE) 1,339 4.9 -21.2°
